Погода в Вангаратте

Австралия     36˚21′35″S   146˚18′40″E
темп.,
°C
ветер,
м/с
пор.,
м/с
влажн.,
%
обл.,
%
осадки,
мм/ч
давл.,
гПа
погр.,
м
16 января, сб
сб1623:00+14˚зюз5114643 0.0 1011727
02:00+11˚зюз510630 0.0 1012950
05:00+10˚юз511750 0.0 1012480
08:00+12˚юз59660 0.0 1014630
11:00+19˚юз79434 0.0 10131648
14:00+22˚зюз7103284 0.0 10122263
17:00+24˚юз9102864 0.0 10112374
20:00+19˚ююз7104316 0.0 10131784
17 января, вс
вс1723:00+15˚юз355615 0.0 1015134
02:00+13˚юз510751 0.0 1016427
05:00+11˚юз610760 0.0 1016348
08:00+13˚ююз46650 0.0 1017422
11:00+20˚юз56320 0.0 10171187
14:00+25˚зюз78220 0.0 10151810
17:00+27˚юз89190 0.0 10131815
20:00+22˚юз811270 0.0 1014774
18 января, пн
пн1823:00+17˚ююз614410 0.0 1017430
02:00+14˚ююз410510 0.0 1016266
05:00+12˚ююз23610 0.0 101664
08:00+15˚ю24520 0.0 1017275
11:00+23˚зюз45310 0.0 10161033
14:00+28˚зюз78210 0.0 10131690
17:00+30˚юз710180 0.0 10112103
20:00+26˚ююз69210 0.0 10121047
19 января, вт
вт1923:00+18˚юз813480 0.0 1015350
02:00+15˚юз713630 0.0 1016488
05:00+13˚ююз512700 0.0 1017397
08:00+14˚ю58580 0.0 1018387
11:00+24˚ююв45200 0.0 1018861
14:00+30˚ююв3480 0.0 10161684
17:00+32˚ю55725 0.0 10152483
20:00+25˚ю611180 0.0 1016502
20 января, ср
ср2023:00+18˚ююв510350 0.0 1020246
02:00+15˚юв23480 0.0 102149
05:00+12˚ююв34630 0.0 102189
08:00+15˚юв23490 0.0 1022190
11:00+24˚всв11280 0.0 1021896
14:00+28˚с22250 0.0 10181751
17:00+30˚ссв21180 0.0 10152324
20:00+27˚с23210 0.0 101535